ECHOSTAR 23 (42070 NORAD) Tracking and Keplerian Element Data

This shows tracking and keplerian element data for the satellite.

Feedback or suggestion? Click here.




ElementValue
Catalog42070
NameECHOSTAR 23
Epoch Orbit978
Epoch Day316.40083138
Epoch Year2019
RAAN282.096
Inclination0.0185
Eccentricity0.0002211
Argument of Perigee317.2084
Mean Anonmoly248.3288
Mean Motion1.00268885
Decay Rate-2.56E-06
L11 42070U 17014A 19316.40083138 -.00000256 00000-0 00000-0 0 9997
L22 42070 0.0185 282.0960 0002211 317.2084 248.3288 1.00268885 9784

Live tracking and technical data element details for ECHOSTAR 23 (NORAD 42070). ECHOSTAR 23 can be tracked NOW for your location showing map with azimuth and elevation plus other details from your city location.

Track the satellite on the map from your city or location and see movement details for azimuth, elevation, latitude, longitude, range, height, and movement on the map or in text.







IsCatalogInMostPopularTable: catalog: 42070, numindb: 360
Update: records affected: 1



GetName: 42070 ECHOSTAR 23

Hit Count: updated at: Wed, 13 Nov 2019 18:18:10 GMT